User: anonymous   Login
Location: *
(40.7873°S, 98.7174°E)
Time: 08:09:39
(UTC+00:00)
Language:

USA 281 - Orbit

View from above orbital plane
View from above orbital plane
View from above satellite
View from above satellite

Ground track
Ground track

The orbit data is extracted from the following two-line orbital elements,

1 43145U 18005A   22171.64713871 0.00000050  00000-0  81060-4 0    08
2 43145 106.0022 189.1268 0012896 303.3820  56.6180 13.48025405    08
Epoch (UTC): 20 June 2022 15:31:52
Eccentricity: 0.0012896
inclination: 106.0022°
perigee height: 1070 km
apogee height: 1089 km
right ascension of ascending node: 189.1268°
argument of perigee: 303.3820°
revolutions per day: 13.48025405
mean anomaly at epoch: 56.6180°
orbit number at epoch: 0

The dashed part of the orbit path shows where the satellite is in the earth's shadow,  

DLR